"Pseudo-MPEC" for P10NHzk

Created 2019 May 16 15:07:16 UT using Find_Orb

Click here for an explanation of pseudo-MPECs

 
 Astrometry: 
     P10NHzk  C2019 05 09d6NCtV0b82N-V]Astrometry9`PZg0lR+!iR$6thldqi9'y!?eO'F51
     P10NHzk  C2019 05 09Ag@']KJ[b@=FMA\G0N2'=%.p'redacted;[/bv)]Zclick.S*ipaF51
     P10NHzk  C2019 05 09/3-here\UC^eqJFhO.^UiforsdRO;52OC@explanation3f6tuI[F51

Station data:
(F51) Pan-STARRS 1, Haleakala  (N20.707235 W156.255910)  US/Hawaii.
   Observers N. Primak, A. Schultz, S. Watters, J. Thiel, T. Goggia. Measurer
   PS1 Science Consortium. 1.8-m Ritchey-Chrétien + CCD.

Orbital elements:  P10NHzk
   Perihelion 2019 Sep 15.981173 +/- 482 TT = 23:32:53 (JD 2458742.481173)
Epoch 2019 May  9.0 TT = JDT 2458612.5   Earth MOID: 0.5170   Ju: 0.8025
M 335.02287972 +/- 70               (J2000 ecliptic)          AutoNEOCP
n   0.19215952 +/- 0.211            Peri.  166.34363 +/- 90
a   2.97414021 +/- 2.18             Node   113.85051 +/- 60
e   0.4856183 +/- 0.246             Incl.   14.55372 +/- 35
P   5.13                   H 19.7   G  0.15   U 11.7  SR
q 1.52984317 +/- 1.44    Q 4.41843726 +/- 40.7
From 3 observations 2019 May 9 (29.8 min); mean residual 0".09
Residuals in arcseconds: 
190509 F51  .09-  .03-    190509 F51  .18+  .06+    190509 F51  .09-  .03-    

Ephemerides (geocentric):
Date (UTC) HH   RA              Dec         delta   r     elong  mag " sig PA
---- -- -- --  -------------   -----------  ------ ------ -----  --- ---- ---
2019 05 16 15  13 25 21.722   +19 00 52.89  1.0819 1.9043 130.9 22.4 1404  16
2019 05 16 16  13 25 20.271   +19 00 40.24  1.0819 1.9041 130.9 22.4 1413  16
2019 05 16 17  13 25 18.823   +19 00 27.54  1.0820 1.9038 130.9 22.4 1422  16
2019 05 16 18  13 25 17.377   +19 00 14.79  1.0820 1.9036 130.8 22.4 1432  16
2019 05 16 19  13 25 15.935   +19 00 02.00  1.0820 1.9034 130.8 22.4 1441  16
2019 05 16 20  13 25 14.496   +18 59 49.16  1.0821 1.9032 130.8 22.4 1450  16
2019 05 16 21  13 25 13.059   +18 59 36.28  1.0821 1.9030 130.7 22.4 1459  16
2019 05 16 22  13 25 11.626   +18 59 23.35  1.0822 1.9028 130.7 22.4 1468  16
2019 05 16 23  13 25 10.196   +18 59 10.38  1.0822 1.9026 130.7 22.4 1477  16
2019 05 17 00  13 25 08.769   +18 58 57.36  1.0823 1.9024 130.6 22.4 1487  16
2019 05 17 01  13 25 07.345   +18 58 44.29  1.0823 1.9022 130.6 22.4 1496  16
2019 05 17 02  13 25 05.924   +18 58 31.18  1.0823 1.9019 130.6 22.4 1505  16
2019 05 17 03  13 25 04.505   +18 58 18.02  1.0824 1.9017 130.5 22.4 1514  16
2019 05 17 04  13 25 03.090   +18 58 04.81  1.0824 1.9015 130.5 22.4 1524  16
2019 05 17 05  13 25 01.678   +18 57 51.56  1.0825 1.9013 130.5 22.4 1533  16
2019 05 17 06  13 25 00.269   +18 57 38.27  1.0825 1.9011 130.4 22.4 1542  16
2019 05 17 07  13 24 58.864   +18 57 24.92  1.0826 1.9009 130.4 22.4 1552  16
2019 05 17 08  13 24 57.461   +18 57 11.54  1.0826 1.9007 130.4 22.4 1561  16
2019 05 17 09  13 24 56.061   +18 56 58.10  1.0826 1.9005 130.3 22.4 1570  16
2019 05 17 10  13 24 54.664   +18 56 44.62  1.0827 1.9003 130.3 22.4 1580  16
2019 05 17 11  13 24 53.271   +18 56 31.10  1.0827 1.9000 130.3 22.4 1589  16
2019 05 17 12  13 24 51.880   +18 56 17.53  1.0828 1.8998 130.2 22.4 1599  16
2019 05 17 13  13 24 50.492   +18 56 03.91  1.0828 1.8996 130.2 22.4 1608  16
2019 05 17 14  13 24 49.108   +18 55 50.25  1.0829 1.8994 130.2 22.4 1617  16
2019 05 17 15  13 24 47.727   +18 55 36.54  1.0829 1.8992 130.1 22.4 1627  17
2019 05 17 16  13 24 46.348   +18 55 22.79  1.0830 1.8990 130.1 22.4 1636  17
2019 05 17 17  13 24 44.973   +18 55 08.99  1.0830 1.8988 130.1 22.4 1646  17
2019 05 17 18  13 24 43.601   +18 54 55.15  1.0830 1.8986 130.0 22.4 1655  17
2019 05 17 19  13 24 42.232   +18 54 41.26  1.0831 1.8984 130.0 22.4 1665  17
2019 05 17 20  13 24 40.866   +18 54 27.33  1.0831 1.8981 130.0 22.4 1675  17
2019 05 17 21  13 24 39.503   +18 54 13.35  1.0832 1.8979 129.9 22.4 1684  17
2019 05 17 22  13 24 38.144   +18 53 59.32  1.0832 1.8977 129.9 22.4 1694  17
2019 05 17 23  13 24 36.787   +18 53 45.25  1.0833 1.8975 129.9 22.4 1703  17
2019 05 18 00  13 24 35.434   +18 53 31.13  1.0833 1.8973 129.8 22.4 1713  17
2019 05 18 01  13 24 34.083   +18 53 16.97  1.0834 1.8971 129.8 22.4 1723  17
2019 05 18 02  13 24 32.736   +18 53 02.76  1.0834 1.8969 129.8 22.4 1732  17
2019 05 18 03  13 24 31.392   +18 52 48.51  1.0835 1.8967 129.7 22.4 1742  17
2019 05 18 04  13 24 30.051   +18 52 34.22  1.0835 1.8965 129.7 22.4 1752  17
2019 05 18 05  13 24 28.713   +18 52 19.87  1.0836 1.8962 129.7 22.4 1761  17
2019 05 18 06  13 24 27.378   +18 52 05.48  1.0836 1.8960 129.6 22.4 1771  17
2019 05 18 07  13 24 26.046   +18 51 51.05  1.0837 1.8958 129.6 22.4 1781  17
2019 05 18 08  13 24 24.718   +18 51 36.57  1.0837 1.8956 129.6 22.4 1791  17
2019 05 18 09  13 24 23.392   +18 51 22.05  1.0838 1.8954 129.5 22.4 1800  17
2019 05 18 10  13 24 22.070   +18 51 07.48  1.0838 1.8952 129.5 22.4 1810  17
2019 05 18 11  13 24 20.751   +18 50 52.87  1.0839 1.8950 129.5 22.4 1820  17
2019 05 18 12  13 24 19.435   +18 50 38.21  1.0839 1.8948 129.4 22.4 1830  17
2019 05 18 13  13 24 18.122   +18 50 23.51  1.0840 1.8946 129.4 22.4 1840  17
2019 05 18 14  13 24 16.813   +18 50 08.76  1.0840 1.8944 129.4 22.4 1850  17